Regional Weather Roundup
Issued by NWS

Home | Current Version | Previous Version | Text Only | Print | Product List | Glossary Off
Versions: 1 2 3 4 5 6 7 8 9 10 11 12 13 14 15 16 17 18 19 20 21 22 23 24 25 26 27 28 29 30 31 32 33 34 35 36 37 38 39 40 41 42 43 44 45 46 47 48 49 50

000
ASUS45 KBOU 011410
RWRCO

WEATHER ROUNDUP FOR COLORADO
NATIONAL WEATHER SERVICE DENVER/BOULDER CO
800 AM MDT WED JUL 01 2015

NOTE: "FAIR" INDICATES FEW OR NO CLOUDS BELOW 12000 FEET WITH NO
SIGNIFICANT WEATHER AND/OR OBSTRUCTIONS TO VISIBILITY.

COZ001>005-013-030-031-011500-
...NORTHWEST COLORADO...

CITY           SKY/WX    TMP DP  RH WIND       PRES   REMARKS
CRAIG          MOSUNNY   62  50  64 CALM      30.26S
HAYDEN         MOSUNNY   64  46  52 E6        30.27R
MEEKER         MOSUNNY   61  48  62 SE5       30.26S
MOUNT WERNER   NOT AVBL
STEAMBOAT SPGS MOSUNNY   59  48  68 CALM      30.30R
WALDEN         SUNNY     54  48  82 CALM      30.39S
$$

COZ006>008-011-011500-
...WEST CENTRAL VALLEYS...

CITY           SKY/WX    TMP DP  RH WIND       PRES   REMARKS
GRAND JUNCTION CLOUDY    73  47  39 SE8       30.10S
MONTROSE       PTSUNNY   68  49  50 S6        30.21S
EAGLE          MOSUNNY   61  48  63 CALM      30.33R
RIFLE          PTSUNNY   69  48  47 CALM      30.19S
DELTA          PTSUNNY   70  49  46 E5        30.17S
NUCLA          PTSUNNY   68  45  42 SE9       30.23S
$$

COZ017>023-064>068-011500-
...SOUTHWEST COLORADO...

CITY           SKY/WX    TMP DP  RH WIND       PRES   REMARKS
DURANGO        CLOUDY    66  53  63 CALM      30.27S
CORTEZ         SUNNY     77  48  35 NW3       30.18F
PAGOSA SPRINGS CLOUDY    60  53  78 E3        30.37S
TELLURIDE      MOSUNNY   65  46  50 CALM      30.47S
WOLF CREEK PAS NOT AVBL
$$

COZ009-010-012-014-032>034-037-058>063-011500-
...CENTRAL COLORADO...

CITY           SKY/WX    TMP DP  RH WIND       PRES   REMARKS
ASPEN          PTSUNNY   63  44  50 CALM      30.35S
BUENA VISTA    MOSUNNY   61  47  60 N6        30.38F
COPPER MTN     MOSUNNY   59  39  47 W9        30.69S
BERTHOUD PASS  FAIR      46  37  71 NW13      30.73R
COTTONWOOD PAS NOT AVBL
GUNNISON       PTSUNNY   59  46  63 CALM      30.40S
KREMMLING      MOSUNNY   59  46  63 CALM      30.37F
LEADVILLE      PTSUNNY   55  41  59 CALM      30.51S
MONARCH PASS   PTSUNNY   52  39  62 SW12      30.78S
SALIDA         MOSUNNY   64  51  63 NW8       30.41F
SUNLIGHT       PTSUNNY   63  39  42 CALM      30.61S
WILKERSON PASS PTSUNNY   55  39  54 N5        30.64S
$$

COZ069>075-011500-
...SAN LUIS VALLEY/SANGRE DE CRISTO MOUNTAINS...

CITY           SKY/WX    TMP DP  RH WIND       PRES   REMARKS
ALAMOSA        CLOUDY    63  51  65 SE5       30.35R
LA VETA PASS   PTSUNNY   54  43  66 MISG      30.51S
SAGUACHE       PTSUNNY   61  50  67 NW10      30.40S
$$

COZ035-036-038>040-011500-
...NORTHERN COLORADO FRONT RANGE...

CITY           SKY/WX    TMP DP  RH WIND       PRES   REMARKS
DENVER INTL AP PTSUNNY   72  55  55 W8        30.16R
DMNS CITY PARK   N/A     72  56  56 S2G8      30.17R
AURORA         PTSUNNY   70  57  63 W5        30.19R
FRONT RANGE AP PTSUNNY   72  59  64 W8        30.17R
ERIE MUNI ARPT PTSUNNY   70  57  62 W3        30.15R
BOULDER MUN AP PTSUNNY   72  55  56 S3        30.16R
CENTENNIAL     PTSUNNY   71  50  47 NW9       30.19R
BROOMFIELD     PTSUNNY   73  54  49 NW6       30.19R
FORT COLLINS   MOSUNNY   72  57  60 N3        30.15R
LONGMONT       MOSUNNY   76  57  50 SW3       30.15S
$$

COZ041-046-047-076>085-087-088-011500-
...PIKES PEAK/PALMER DIVIDE AND SOUTHERN FOOTHILLS...

CITY           SKY/WX    TMP DP  RH WIND       PRES   REMARKS
COLO. SPRINGS  PTSUNNY   72  52  49 NE5       30.20R
A. F. ACADEMY  MOSUNNY   71  51  50 N12       30.22R
ELLICOTT       MOSUNNY  N/A N/A N/A CALM      30.18R
FALCON         MOSUNNY   74  46  37 N6        30.26R
FORT CARSON    MOSUNNY   70  53  55 N6        30.16R
LIMON          PTSUNNY   73  56  54 N7        30.14S
MONUMENT HILL  PTSUNNY   68  50  52 W6        30.28R
TRINIDAD       MOSUNNY   75  52  44 CALM      30.17R
$$

COZ042>045-048>051-090-091-011500-
...NORTHEAST COLORADO...

CITY           SKY/WX    TMP DP  RH WIND       PRES   REMARKS
GREELEY ARPT   MOSUNNY   72  57  60 CALM      30.12R
AKRON          MOSUNNY   73  59  61 W7        30.09R
BURLINGTON     MOSUNNY   79  54  41 N15       30.03S
WRAY           SUNNY     78  59  51 NW10G16   30.01R
STERLING       MOSUNNY   73  59  60 CALM        N/A
HOLYOKE        SUNNY     81  61  50 N10       30.00S
FORT MORGAN    MOSUNNY   75  55  50 W3        30.10R
$$

COZ086-089-092>099-011500-
...SOUTHEAST COLORADO...

CITY           SKY/WX    TMP DP  RH WIND       PRES   REMARKS
PUEBLO         MOSUNNY   74  56  53 S3        30.08S
LA JUNTA       MOSUNNY   81  55  40 W6        30.05S
LAMAR          MOSUNNY   79  58  48 W10       30.00R
SPRINGFIELD      N/A     81  52  36 N14       30.04R
$$



USA.gov is the U.S. government's official web portal to all federal, state and local government web resources and services.